GHGSAT-C12 (64529 NORAD) Tracking and Keplerian Element Data

This shows tracking and keplerian element data for the satellite.

Feedback or suggestion? Click here.




ElementValue
Catalog64529
NameGHGSAT-C12
Epoch Orbit2763
Epoch Day354.13814293
Epoch Year2025
RAAN105.924
Inclination97.4618
Eccentricity0.0006508
Argument of Perigee81.341
Mean Anonmoly278.8562
Mean Motion15.18729243
Decay Rate2.998E-05
L11 64529U 25135B 25354.13814293 .00002998 00000+0 14764-3 0 9994
L22 64529 97.4618 105.9240 0006508 81.3410 278.8562 15.18729243 27638



Live tracking and technical data element details for GHGSAT-C12 (NORAD 64529). GHGSAT-C12 can be tracked NOW for your location showing map with azimuth and elevation plus other details from your city location.







IsCatalogInMostPopularTable: catalog: 64529, numindb: 6
Update: records affected: 1



GetName: 64529 GHGSAT-C12

Hit Count: updated at: Tue, 21 Apr 2026 20:18:28 GMT